Weather in Yuryevka

Russia / Omsk Oblast     54°01′31″N   73°23′35″E
temp.,
°C
wind,
m/s
gust,
m/s
humid.,
%
clouds,
%
prec.,
mm/h
press.,
hPa
HPBL,
m
21 april, wed
wed2100:00−2wsw5104964 0.0 1027282
03:00−1wsw7134795 0.0 1024418
06:000w71351100 0.0 1023552
09:00+2nnw696318 0.0 1024677
12:00+5nnw68444 0.0 10251335
15:00+7nnw794094 0.0 10261964
18:00+6n794193 0.0 10291860
21:00+2nne610565 0.0 1033485
22 april, thu
thu2200:000ne59735 0.0 1035398
03:00−2nne48734 0.0 1038379
06:00−2ne47775 0.0 1040339
09:00+1ene45605 0.0 1042714
12:00+4e33455 0.0 10441318
15:00+6e33375 0.0 10441539
18:00+7e33350 0.0 10441464
21:00+4ese34490 0.0 104575
23 april, fri
fri2300:00+2se48584 0.0 1046180
03:000se48664 0.0 1046145
06:00−1se366881 0.0 1046137
09:00+4sse45490 0.0 1047509
12:00+7sse44380 0.0 10461182
15:00+9se44300 0.0 10431454
18:00+9se33280 0.0 10421538
21:00+6se35421 0.0 104266
24 april, sat
sat2400:00+4se365357 0.0 104196
03:00+2se345950 0.0 104060
06:00+1sse336391 0.0 104037
09:00+5sse45454 0.0 1039381
12:00+9sse44335 0.0 10371354
15:00+11s44275 0.0 10351637
18:00+11sse4427100 0.0 10341532
21:00+8sse363958 0.0 1034115
25 april, sun
sun2500:00+6sse4845100 0.0 1032146
03:00+5sse4951100 0.0 1032219
06:00+4se41055100 0.0 1031210
09:00+8sse71041100 0.0 1030472
12:00+11sse8929100 0.0 10281059
15:00+13sse8926100 0.0 10261431
18:00+14sse71027100 0.0 10241542
21:00+11sse614365 0.0 1023344